FLOCK 3P-56 (42042 NORAD) Tracking and Keplerian Element Data

This shows tracking and keplerian element data for the satellite.

Feedback or suggestion? Click here.




ElementValue
Catalog42042
NameFLOCK 3P-56
Epoch Orbit5528
Epoch Day45.85096237
Epoch Year2018
RAAN111.6085
Inclination97.4654
Eccentricity0.0008993
Argument of Perigee90.7669
Mean Anonmoly269.4599
Mean Motion15.24448005
Decay Rate2.766E-05
L11 42042U 17008CY 18045.85096237 .00002766 00000-0 11556-3 0 9998
L22 42042 97.4654 111.6085 0008993 90.7669 269.4599 15.24448005 55284

Live tracking and technical data element details for FLOCK 3P-56 (NORAD 42042). FLOCK 3P-56 can be tracked NOW for your location showing map with azimuth and elevation plus other details from your city location.

Track the satellite on the map from your city or location and see movement details for azimuth, elevation, latitude, longitude, range, height, and movement on the map or in text.







IsCatalogInMostPopularTable: catalog: 42042, numindb: 138
Update: records affected: 1



GetName: 42042 FLOCK 3P-56

Hit Count: updated at: Sun, 16 Dec 2018 09:57:25 GMT